STARLINK N

Last updated on Jan. 16, 2020, 12:02 a.m. UTC

1 44926U 20001N   20015.58334491  .00173322  00000-0  86089-3 0  9995
2 44926  53.0006 354.8485 0001070 107.5003 275.5141 15.80951347  2080

Satellite is not in orbit.